Weather History for Middlesboro, KY

Change the Weather History Date:

Tuesday, May 8, 2012

  Actual Average (KLOZ) Record (KLOZ)
Temperature  
Mean Temperature 22 °C 17 °C  
Max Temperature 27 °C 24 °C 30 °C (1964)
Min Temperature 18 °C 11 °C 0 °C (1989)
Degree Days  
Heating Degree Days 0 4  
Month to date heating degree days 36  
Since 1 July heating degree days 4137  
Cooling Degree Days 7 2  
Month to date cooling degree days 11  
Year to date cooling degree days 37  
Growing Degree Days 22 (Base 50)    
Moisture  
Dew Point 19 °C    
Average Humidity 83    
Maximum Humidity 100    
Minimum Humidity 61    
Precipitation  
Precipitation 0.00 mm 4.32 mm 3.99 mm (1972)
Month to date precipitation 1.28  
Year to date precipitation 16.63  
Sea Level Pressure  
Sea Level Pressure 1012 hPa    
Wind  
Wind Speed 3 km/h (West)    
Max Wind Speed 21 km/h    
Max Gust Speed 29 km/h    
Visibility 15 kilometers    
Events Rain    
T = Trace of Precipitation, MM = Missing Value Source: NWS Daily Summary

Daily Weather History Graph

Daily Weather History Graph

Search for Another Location

Airport:

Trip Planner

Search our weather history database for the weather conditions in past years. The results will help you decide how hot, cold, wet, or windy it might be!

Date:

Astronomy

May. 08, 2012 Rise Set
Actual Time 5:33 AM CDT 7:29 PM CDT
Civil Twilight 5:05 AM CDT 7:58 PM CDT
Nautical Twilight 4:30 AM CDT 8:32 PM CDT
Astronomical Twilight 3:54 AM CDT 9:09 PM CDT
Moon 10:37 PM CDT (5/8) 7:42 AM CDT (5/8)
Length of Visible Light 14h 52m
Length of Day
13h 56m
Waning Gibbous, 90% of the Moon is Illuminated
May 8
Waning Gibbous
May 12
Last Quarter
May 20
New
May 28
First Quarter
Jun 4
Full

Hourly Weather History & Observations

Time (CDT) Temp. Heat Index Dew Point Humidity Pressure Visibility Wind Dir Wind Speed Gust Speed Precip Events Conditions
12:35 AM 20.0 °C - 19.0 °C 94% 1011.7 hPa 11.3 km Calm Calm - N/A   Overcast
12:55 AM 20.0 °C - 19.0 °C 94% 1011.4 hPa 11.3 km Calm Calm - N/A   Mostly Cloudy
1:15 AM 20.0 °C - 19.0 °C 94% 1011.4 hPa 8.0 km Calm Calm - N/A   Scattered Clouds
1:35 AM 19.0 °C - 19.0 °C 100% 1011.4 hPa 8.0 km Calm Calm - N/A   Mostly Cloudy
1:55 AM 20.0 °C - 19.0 °C 94% 1011.4 hPa 8.0 km Calm Calm - N/A   Overcast
2:15 AM 21.0 °C - 20.0 °C 94% 1011.1 hPa 16.1 km SW 5.6 km/h / 1.5 m/s - N/A Rain Light Rain
2:35 AM 20.0 °C - 19.0 °C 94% 1011.4 hPa 16.1 km Calm Calm - N/A   Scattered Clouds
2:55 AM 21.0 °C - 19.0 °C 88% 1011.4 hPa 16.1 km WSW 11.1 km/h / 3.1 m/s - N/A Rain Light Rain
3:15 AM 21.0 °C - 20.0 °C 94% 1011.7 hPa 11.3 km Calm Calm - N/A Rain Light Rain
3:35 AM 21.0 °C - 19.0 °C 88% 1011.7 hPa 11.3 km SSW 20.4 km/h / 5.7 m/s 29.6 km/h / 8.2 m/s N/A Rain Rain
3:55 AM 21.0 °C - 19.0 °C 88% 1011.7 hPa 16.1 km SW 5.6 km/h / 1.5 m/s - N/A Rain Rain
4:15 AM 20.0 °C - 19.0 °C 94% 1011.4 hPa 16.1 km South 9.3 km/h / 2.6 m/s - N/A Rain Light Rain
4:35 AM 20.0 °C - 19.0 °C 94% 1011.7 hPa 16.1 km SSW 7.4 km/h / 2.1 m/s - N/A Rain Light Rain
4:55 AM 20.0 °C - 19.0 °C 94% 1011.7 hPa 16.1 km SSW 7.4 km/h / 2.1 m/s - N/A Rain Light Rain
5:15 AM 20.0 °C - 19.0 °C 94% 1011.7 hPa 16.1 km Calm Calm - N/A   Mostly Cloudy
5:35 AM 19.0 °C - 19.0 °C 100% 1011.7 hPa 16.1 km Calm Calm - N/A   Mostly Cloudy
5:55 AM 19.0 °C - 18.0 °C 94% 1012.1 hPa 8.0 km Calm Calm - N/A   Scattered Clouds
6:15 AM 19.0 °C - 18.0 °C 94% 1012.1 hPa 8.0 km Calm Calm - N/A   Clear
6:35 AM 19.0 °C - 18.0 °C 94% 1012.4 hPa 11.3 km Calm Calm - N/A   Mostly Cloudy
6:55 AM 19.0 °C - 19.0 °C 100% 1012.4 hPa 16.1 km Calm Calm - N/A   Scattered Clouds
7:15 AM 21.0 °C - 20.0 °C 94% 1012.4 hPa 16.1 km Calm Calm - N/A   Clear
7:55 AM 22.0 °C - 19.0 °C 83% 1012.8 hPa 16.1 km Calm Calm - N/A   Overcast
8:15 AM 21.0 °C - 19.0 °C 88% 1012.8 hPa 6.4 km Calm Calm - N/A Rain Light Rain
8:35 AM 21.0 °C - 20.0 °C 94% 1012.8 hPa 16.1 km Calm Calm - N/A   Overcast
8:55 AM 22.0 °C - 19.0 °C 83% 1012.8 hPa 16.1 km Calm Calm - N/A   Overcast
9:15 AM 22.0 °C - 19.0 °C 83% 1012.8 hPa 16.1 km WSW 7.4 km/h / 2.1 m/s - N/A   Overcast
9:35 AM 23.0 °C - 19.0 °C 78% 1012.8 hPa 16.1 km WSW 9.3 km/h / 2.6 m/s - N/A   Mostly Cloudy
9:55 AM 23.0 °C - 19.0 °C 78% 1012.8 hPa 16.1 km West 5.6 km/h / 1.5 m/s - N/A   Mostly Cloudy
10:15 AM 23.0 °C - 19.0 °C 78% 1012.8 hPa 16.1 km Calm Calm - N/A   Mostly Cloudy
10:35 AM 23.0 °C - 19.0 °C 78% 1013.1 hPa 16.1 km West 7.4 km/h / 2.1 m/s - N/A Rain Light Rain
10:55 AM 23.0 °C - 19.0 °C 78% 1012.8 hPa 16.1 km West 7.4 km/h / 2.1 m/s - N/A   Scattered Clouds
11:15 AM 24.0 °C - 19.0 °C 73% 1012.8 hPa 16.1 km WSW 11.1 km/h / 3.1 m/s - N/A   Mostly Cloudy
11:35 AM 25.0 °C - 19.0 °C 69% 1012.4 hPa 16.1 km West 7.4 km/h / 2.1 m/s - N/A   Mostly Cloudy
11:55 AM 24.0 °C - 19.0 °C 73% 1012.4 hPa 16.1 km WNW 5.6 km/h / 1.5 m/s - N/A   Mostly Cloudy
12:15 PM 24.0 °C - 18.0 °C 69% 1012.4 hPa 16.1 km West 7.4 km/h / 2.1 m/s - N/A   Overcast
12:35 PM 23.0 °C - 19.0 °C 78% 1012.8 hPa 16.1 km West 5.6 km/h / 1.5 m/s - N/A   Overcast
12:55 PM 24.0 °C - 19.0 °C 73% 1012.8 hPa 16.1 km WNW 7.4 km/h / 2.1 m/s - N/A   Overcast
1:15 PM 25.0 °C - 19.0 °C 69% 1012.4 hPa 16.1 km West 5.6 km/h / 1.5 m/s - N/A   Overcast
1:35 PM 24.0 °C - 18.0 °C 69% 1012.4 hPa 16.1 km WNW 13.0 km/h / 3.6 m/s 27.8 km/h / 7.7 m/s N/A   Overcast
1:55 PM 26.0 °C - 19.0 °C 65% 1012.1 hPa 16.1 km West 13.0 km/h / 3.6 m/s - N/A   Scattered Clouds
2:15 PM 27.0 °C 28.2 °C 19.0 °C 61% 1011.7 hPa 16.1 km WNW 9.3 km/h / 2.6 m/s - N/A   Clear
2:35 PM 27.0 °C 28.2 °C 19.0 °C 61% 1011.7 hPa 16.1 km West 9.3 km/h / 2.6 m/s - N/A   Scattered Clouds
2:55 PM 26.0 °C - 19.0 °C 65% 1011.4 hPa 16.1 km NW 9.3 km/h / 2.6 m/s - N/A   Mostly Cloudy
3:15 PM 24.0 °C - 18.0 °C 69% 1011.4 hPa 16.1 km WNW 11.1 km/h / 3.1 m/s 29.6 km/h / 8.2 m/s N/A   Mostly Cloudy
3:35 PM 26.0 °C - 19.0 °C 65% 1011.4 hPa 16.1 km NNW 9.3 km/h / 2.6 m/s - N/A   Clear
3:55 PM 26.0 °C - 19.0 °C 65% 1011.4 hPa 16.1 km NW 11.1 km/h / 3.1 m/s 16.7 km/h / 4.6 m/s N/A   Scattered Clouds
4:15 PM 26.0 °C - 19.0 °C 65% 1011.7 hPa 16.1 km NW 9.3 km/h / 2.6 m/s - N/A   Mostly Cloudy
4:55 PM 25.0 °C - 19.0 °C 69% 1011.4 hPa 16.1 km Calm Calm - N/A   Scattered Clouds
5:15 PM 26.0 °C - 19.0 °C 65% 1011.7 hPa 16.1 km North 11.1 km/h / 3.1 m/s - N/A   Mostly Cloudy
5:35 PM 25.0 °C - 19.0 °C 69% 1011.4 hPa 16.1 km Calm Calm - N/A   Mostly Cloudy
5:55 PM 24.0 °C - 19.0 °C 73% 1011.4 hPa 16.1 km North - - N/A   Scattered Clouds
6:15 PM 24.0 °C - 19.0 °C 73% 1011.4 hPa 16.1 km NNE 7.4 km/h / 2.1 m/s - N/A   Scattered Clouds
6:35 PM 23.0 °C - 19.0 °C 78% 1011.4 hPa 16.1 km NE 9.3 km/h / 2.6 m/s - N/A   Scattered Clouds
6:55 PM 22.0 °C - 19.0 °C 83% 1011.4 hPa 16.1 km North - - N/A   Scattered Clouds
7:35 PM 22.0 °C - 19.0 °C 83% 1011.7 hPa 16.1 km Calm Calm - N/A   Mostly Cloudy
7:55 PM 22.0 °C - 19.0 °C 83% 1011.7 hPa 16.1 km Calm Calm - N/A   Mostly Cloudy
8:15 PM 21.0 °C - 19.0 °C 88% 1012.1 hPa 16.1 km Calm Calm - N/A   Mostly Cloudy
8:35 PM 21.0 °C - 18.0 °C 83% 1012.8 hPa 16.1 km Calm Calm - N/A   Scattered Clouds
8:55 PM 21.0 °C - 18.0 °C 83% 1013.1 hPa 16.1 km Calm Calm - N/A   Scattered Clouds
9:15 PM 20.0 °C - 18.0 °C 88% 1013.1 hPa 16.1 km Calm Calm - N/A   Mostly Cloudy
9:35 PM 19.0 °C - 19.0 °C 100% 1013.4 hPa 16.1 km Calm Calm - N/A   Mostly Cloudy
9:55 PM 19.0 °C - 18.0 °C 94% 1013.4 hPa 16.1 km Calm Calm - N/A   Mostly Cloudy
10:15 PM 19.0 °C - 18.0 °C 94% 1013.4 hPa 16.1 km Calm Calm - N/A   Scattered Clouds
10:55 PM 18.0 °C - 18.0 °C 100% 1013.1 hPa 16.1 km Calm Calm - N/A   Mostly Cloudy
11:15 PM 18.0 °C - 18.0 °C 100% 1012.8 hPa 16.1 km Calm Calm - N/A   Scattered Clouds
11:35 PM 18.0 °C - 18.0 °C 100% 1012.8 hPa 16.1 km Calm Calm - N/A   Mostly Cloudy
11:55 PM 18.0 °C - 18.0 °C 100% 1012.8 hPa 11.3 km Calm Calm - N/A   Overcast